| time (UTC) | temp F | wind direction | speed MPH | gust MPH | rain 1hr in | rain 24hr in | rain mn in | humidity % | barometer mb |
| 20260903112959 | 59 | 102 | 2.0 | 6.0 | 0.00 | 0.01 | 0.00 | 70 | 1007.6 |
| 20260903112002 | 59 | 115 | 2.0 | 5.0 | 0.00 | 0.01 | 0.00 | 69 | 1007.5 |
| 20260903111459 | 59 | 124 | 1.0 | 4.0 | 0.00 | 0.01 | 0.00 | 69 | 1007.5 |
| 20260903110500 | 59 | 138 | 3.0 | 7.0 | 0.00 | 0.01 | 0.00 | 68 | 1007.5 |
| 20260903110003 | 59 | 115 | 1.0 | 8.0 | 0.00 | 0.01 | 0.00 | 68 | 1007.5 |
| 20260903105458 | 59 | 94 | 4.0 | 8.0 | 0.00 | 0.01 | 0.00 | 68 | 1007.5 |
| 20260903104958 | 60 | 63 | 1.0 | 6.0 | 0.00 | 0.01 | 0.00 | 68 | 1007.5 |
| 20260903104458 | 60 | 105 | 3.0 | 8.0 | 0.00 | 0.01 | 0.00 | 67 | 1007.5 |
| 20260903103958 | 60 | 89 | 4.0 | 9.0 | 0.00 | 0.01 | 0.00 | 67 | 1007.4 |
| 20260903103459 | 60 | 130 | 5.0 | 9.0 | 0.00 | 0.01 | 0.00 | 67 | 1007.3 |
| 20260903103000 | 60 | 133 | 5.0 | 9.0 | 0.00 | 0.01 | 0.00 | 67 | 1007.4 |
| 20260903102001 | 60 | 117 | 3.0 | 9.0 | 0.00 | 0.01 | 0.00 | 67 | 1007.2 |
| 20260903101500 | 60 | 131 | 3.0 | 11.0 | 0.00 | 0.01 | 0.00 | 67 | 1007.1 |
| 20260903101000 | 60 | 159 | 3.0 | 11.0 | 0.00 | 0.01 | 0.00 | 67 | 1007.1 |
| 20260903100500 | 60 | 148 | 5.0 | 10.0 | 0.00 | 0.01 | 0.00 | 67 | 1007.0 |
| 20260903095459 | 60 | 122 | 5.0 | 11.0 | 0.00 | 0.01 | 0.00 | 67 | 1007.1 |
| 20260903094958 | 60 | 113 | 3.0 | 8.0 | 0.00 | 0.01 | 0.00 | 68 | 1007.0 |
| 20260903094459 | 59 | 144 | 3.0 | 7.0 | 0.00 | 0.01 | 0.00 | 67 | 1006.9 |
| 20260903093957 | 59 | 117 | 3.0 | 7.0 | 0.00 | 0.01 | 0.00 | 68 | 1006.9 |
| 20260903093458 | 59 | 115 | 2.0 | 5.0 | 0.00 | 0.01 | 0.00 | 69 | 1006.9 |
| 20260903093000 | 59 | 135 | 2.0 | 4.0 | 0.00 | 0.01 | 0.00 | 68 | 1007.0 |
| 20260903092459 | 59 | 117 | 2.0 | 4.0 | 0.00 | 0.01 | 0.00 | 68 | 1006.9 |
| 20260903091958 | 59 | 172 | 2.0 | 5.0 | 0.00 | 0.01 | 0.00 | 68 | 1007.0 |
| 20260903090959 | 60 | 187 | 3.0 | 7.0 | 0.00 | 0.01 | 0.00 | 67 | 1006.9 |
| 20260903090458 | 60 | 46 | 3.0 | 7.0 | 0.00 | 0.01 | 0.00 | 67 | 1006.9 |
| 20260903085458 | 60 | 108 | 2.0 | 9.0 | 0.00 | 0.01 | 0.00 | 67 | 1007.0 |
| 20260903084959 | 60 | 102 | 2.0 | 9.0 | 0.00 | 0.01 | 0.00 | 67 | 1007.0 |
| 20260903084458 | 60 | 81 | 3.0 | 8.0 | 0.00 | 0.01 | 0.00 | 67 | 1007.0 |
| 20260903083958 | 60 | 114 | 4.0 | 6.0 | 0.00 | 0.01 | 0.00 | 68 | 1007.1 |
| 20260903083459 | 60 | 138 | 3.0 | 4.0 | 0.00 | 0.01 | 0.00 | 68 | 1007.1 |
| 20260903082959 | 60 | 107 | 1.0 | 4.0 | 0.00 | 0.01 | 0.00 | 68 | 1007.0 |
| 20260903082458 | 60 | 197 | 2.0 | 5.0 | 0.00 | 0.01 | 0.00 | 68 | 1007.1 |
| 20260903081959 | 60 | 147 | 3.0 | 5.0 | 0.00 | 0.01 | 0.00 | 68 | 1007.0 |
| 20260903081459 | 60 | 35 | 2.0 | 8.0 | 0.00 | 0.01 | 0.00 | 68 | 1007.0 |
| 20260903081001 | 60 | 122 | 5.0 | 8.0 | 0.00 | 0.01 | 0.00 | 68 | 1007.0 |
| 20260903080458 | 60 | 124 | 4.0 | 8.0 | 0.00 | 0.01 | 0.00 | 69 | 1007.1 |
| 20260903080004 | 60 | 127 | 2.0 | 10.0 | 0.00 | 0.01 | 0.00 | 69 | 1007.0 |
| 20260903075459 | 60 | 114 | 3.0 | 10.0 | 0.00 | 0.01 | 0.00 | 69 | 1007.0 |
| 20260903074959 | 60 | 135 | 3.0 | 6.0 | 0.00 | 0.01 | 0.00 | 69 | 1007.0 |
| 20260903074500 | 60 | 126 | 2.0 | 13.0 | 0.00 | 0.01 | 0.00 | 69 | 1007.0 |
| 20260903073959 | 60 | 156 | 6.0 | 14.0 | 0.00 | 0.01 | 0.00 | 69 | 1006.9 |
| 20260903073459 | 60 | 89 | 8.0 | 14.0 | 0.00 | 0.01 | 0.00 | 69 | 1006.9 |
| 20260903072959 | 60 | 138 | 5.0 | 15.0 | 0.00 | 0.01 | 0.00 | 70 | 1006.8 |
| 20260903072500 | 60 | 221 | 4.0 | 15.0 | 0.00 | 0.01 | 0.00 | 70 | 1006.8 |
| 20260903071003 | 60 | 108 | 7.0 | 15.0 | 0.00 | 0.01 | 0.00 | 70 | 1006.3 |
| 20260903070502 | 60 | 195 | 6.0 | 13.0 | 0.00 | 0.01 | 0.00 | 70 | 1006.3 |
| 20260903070003 | 60 | 165 | 7.0 | 13.0 | 0.00 | 0.01 | 0.01 | 70 | 1006.4 |
| 20260903065503 | 60 | 204 | 3.0 | 12.0 | 0.00 | 0.01 | 0.01 | 70 | 1006.4 |
| 20260903065003 | 60 | 108 | 5.0 | 12.0 | 0.00 | 0.01 | 0.01 | 71 | 1006.5 |
| 20260903064503 | 60 | 124 | 6.0 | 12.0 | 0.00 | 0.01 | 0.01 | 71 | 1006.5 |
| 20260903064003 | 60 | 174 | 3.0 | 7.0 | 0.00 | 0.01 | 0.01 | 71 | 1006.5 |
| 20260903063503 | 60 | 142 | 3.0 | 9.0 | 0.00 | 0.01 | 0.01 | 71 | 1006.5 |
| 20260903063004 | 60 | 115 | 4.0 | 11.0 | 0.00 | 0.01 | 0.01 | 71 | 1006.6 |
| 20260903062502 | 60 | 145 | 5.0 | 11.0 | 0.00 | 0.01 | 0.01 | 71 | 1006.6 |
| 20260903062003 | 60 | 110 | 4.0 | 9.0 | 0.00 | 0.01 | 0.01 | 71 | 1006.5 |
| 20260903061503 | 60 | 130 | 5.0 | 9.0 | 0.00 | 0.01 | 0.01 | 71 | 1006.5 |
| 20260903060502 | 60 | 79 | 3.0 | 13.0 | 0.00 | 0.01 | 0.01 | 71 | 1006.8 |
| 20260903060008 | 60 | 150 | 6.0 | 13.0 | 0.00 | 0.01 | 0.01 | 71 | 1006.7 |
| 20260903055502 | 60 | 131 | 5.0 | 13.0 | 0.00 | 0.01 | 0.01 | 71 | 1006.7 |
| 20260903055003 | 60 | 131 | 4.0 | 11.0 | 0.00 | 0.01 | 0.01 | 71 | 1006.6 |
| 20260903054502 | 61 | 130 | 5.0 | 11.0 | 0.00 | 0.01 | 0.01 | 72 | 1006.7 |
| 20260903054002 | 61 | 129 | 5.0 | 15.0 | 0.00 | 0.01 | 0.01 | 72 | 1006.7 |
| 20260903053502 | 60 | 194 | 8.0 | 15.0 | 0.00 | 0.01 | 0.01 | 72 | 1006.9 |
| 20260903053005 | 60 | 89 | 3.0 | 8.0 | 0.00 | 0.01 | 0.01 | 72 | 1006.8 |
| 20260903052502 | 60 | 89 | 2.0 | 8.0 | 0.00 | 0.01 | 0.01 | 72 | 1006.7 |
| 20260903051504 | 60 | 269 | 1.0 | 10.0 | 0.00 | 0.01 | 0.01 | 72 | 1006.3 |
| 20260903051003 | 60 | 133 | 4.0 | 8.0 | 0.00 | 0.01 | 0.01 | 72 | 1006.4 |
| 20260903050502 | 60 | 122 | 4.0 | 9.0 | 0.00 | 0.01 | 0.01 | 72 | 1006.3 |
| 20260903050006 | 60 | 165 | 5.0 | 14.0 | 0.00 | 0.01 | 0.01 | 72 | 1006.3 |
| 20260903045502 | 61 | 141 | 7.0 | 14.0 | 0.00 | 0.01 | 0.01 | 72 | 1006.4 |
| 20260903045002 | 60 | 133 | 2.0 | 12.0 | 0.00 | 0.01 | 0.01 | 72 | 1006.3 |
| 20260903044502 | 61 | 121 | 3.0 | 12.0 | 0.00 | 0.01 | 0.01 | 72 | 1006.2 |
| 20260903044003 | 61 | 128 | 5.0 | 12.0 | 0.00 | 0.01 | 0.01 | 72 | 1006.0 |
| 20260903043502 | 61 | 137 | 6.0 | 13.0 | 0.00 | 0.01 | 0.01 | 71 | 1006.0 |
| 20260903043003 | 61 | 122 | 6.0 | 14.0 | 0.00 | 0.01 | 0.01 | 71 | 1005.9 |
| 20260903042502 | 61 | 121 | 5.0 | 17.0 | 0.00 | 0.01 | 0.01 | 71 | 1005.9 |
| 20260903042002 | 61 | 131 | 6.0 | 17.0 | 0.00 | 0.01 | 0.01 | 71 | 1005.7 |
| 20260903041504 | 61 | 195 | 5.0 | 13.0 | 0.00 | 0.01 | 0.01 | 71 | 1005.6 |
| 20260903040502 | 61 | 140 | 6.0 | 14.0 | 0.00 | 0.01 | 0.01 | 71 | 1005.6 |
| 20260903040009 | 61 | 138 | 6.0 | 13.0 | 0.00 | 0.01 | 0.01 | 71 | 1005.5 |
| 20260903035501 | 61 | 86 | 6.0 | 16.0 | 0.00 | 0.01 | 0.01 | 70 | 1005.4 |
| 20260903035003 | 62 | 167 | 6.0 | 17.0 | 0.00 | 0.01 | 0.01 | 70 | 1005.1 |
| 20260903034503 | 62 | 101 | 7.0 | 17.0 | 0.00 | 0.01 | 0.01 | 70 | 1005.1 |
| 20260903034002 | 62 | 123 | 7.0 | 15.0 | 0.00 | 0.01 | 0.01 | 70 | 1004.9 |
| 20260903033004 | 63 | 215 | 6.0 | 17.0 | 0.00 | 0.01 | 0.01 | 69 | 1004.6 |
| 20260903032502 | 63 | 98 | 6.0 | 17.0 | 0.00 | 0.01 | 0.01 | 68 | 1004.6 |
| 20260903031504 | 63 | 96 | 7.0 | 13.0 | 0.00 | 0.01 | 0.01 | 66 | 1004.2 |
| 20260903031002 | 63 | 159 | 6.0 | 11.0 | 0.00 | 0.01 | 0.01 | 68 | 1003.8 |
| 20260903030502 | 63 | 146 | 3.0 | 15.0 | 0.00 | 0.01 | 0.01 | 69 | 1003.7 |
| 20260903030004 | 63 | 167 | 6.0 | 18.0 | 0.00 | 0.01 | 0.01 | 69 | 1003.7 |
| 20260903025502 | 63 | 115 | 6.0 | 18.0 | 0.00 | 0.01 | 0.01 | 69 | 1003.6 |
| 20260903025003 | 63 | 158 | 7.0 | 16.0 | 0.00 | 0.01 | 0.01 | 69 | 1003.5 |
| 20260903024003 | 63 | 139 | 7.0 | 14.0 | 0.00 | 0.01 | 0.01 | 69 | 1003.1 |
| 20260903023502 | 63 | 138 | 6.0 | 17.0 | 0.00 | 0.01 | 0.01 | 69 | 1002.8 |
| 20260903022002 | 63 | 110 | 4.0 | 13.0 | 0.00 | 0.01 | 0.01 | 70 | 1002.7 |
| 20260903021003 | 63 | 110 | 3.0 | 14.0 | 0.00 | 0.01 | 0.01 | 70 | 1002.7 |
| 20260903020503 | 63 | 112 | 7.0 | 14.0 | 0.00 | 0.01 | 0.01 | 70 | 1002.9 |
| 20260903020007 | 63 | 126 | 6.0 | 14.0 | 0.00 | 0.01 | 0.01 | 70 | 1002.9 |
| 20260903015502 | 63 | 110 | 5.0 | 20.0 | 0.01 | 0.01 | 0.01 | 70 | 1002.9 |
| 20260903015003 | 63 | 128 | 12.0 | 20.0 | 0.01 | 0.01 | 0.01 | 70 | 1002.9 |
| 20260903014002 | 61 | 122 | 5.0 | 12.0 | 0.01 | 0.01 | 0.01 | 76 | 1002.7 |
| 20260903013501 | 61 | 131 | 6.0 | 12.0 | 0.01 | 0.01 | 0.01 | 76 | 1002.7 |
| 20260903013003 | 61 | 152 | 5.0 | 11.0 | 0.01 | 0.01 | 0.01 | 78 | 1002.7 |
| 20260903012500 | 60 | 186 | 6.0 | 11.0 | 0.01 | 0.01 | 0.01 | 79 | 1002.8 |
| 20260903012003 | 60 | 98 | 5.0 | 11.0 | 0.01 | 0.01 | 0.01 | 80 | 1002.8 |
| 20260903011503 | 60 | 122 | 5.0 | 11.0 | 0.01 | 0.01 | 0.01 | 81 | 1002.9 |
| 20260903011002 | 60 | 133 | 3.0 | 11.0 | 0.01 | 0.01 | 0.01 | 83 | 1003.0 |
| 20260903010503 | 60 | 75 | 5.0 | 13.0 | 0.01 | 0.01 | 0.01 | 81 | 1002.9 |
| 20260903010005 | 60 | 89 | 3.0 | 13.0 | 0.01 | 0.01 | 0.01 | 81 | 1003.0 |
| 20260903005503 | 61 | 112 | 5.0 | 11.0 | 0.00 | 0.00 | 0.00 | 80 | 1003.0 |
| 20260903005004 | 61 | 102 | 4.0 | 9.0 | 0.00 | 0.00 | 0.00 | 79 | 1003.1 |
| 20260903004003 | 62 | 113 | 4.0 | 8.0 | 0.00 | 0.00 | 0.00 | 77 | 1003.4 |
| 20260903003503 | 62 | 135 | 4.0 | 12.0 | 0.00 | 0.00 | 0.00 | 76 | 1003.4 |
| 20260903003004 | 62 | 115 | 6.0 | 12.0 | 0.00 | 0.00 | 0.00 | 75 | 1003.6 |
| 20260903002134 | 62 | 187 | 8.0 | 14.0 | 0.00 | 0.00 | 0.00 | 74 | 1003.6 |
| 20260903000709 | 63 | 121 | 6.0 | 15.0 | 0.00 | 0.00 | 0.00 | 72 | 1003.6 |
| 20260902233502 | 64 | 108 | 4.0 | 10.0 | 0.00 | 0.00 | 0.00 | 68 | 1003.6 |
| 20260902233004 | 65 | 124 | 6.0 | 11.0 | 0.00 | 0.00 | 0.00 | 66 | 1003.6 |
| 20260902232003 | 65 | 158 | 6.0 | 11.0 | 0.00 | 0.00 | 0.00 | 63 | 1003.5 |
| 20260902231503 | 65 | 131 | 4.0 | 15.0 | 0.00 | 0.00 | 0.00 | 63 | 1003.5 |
| 20260902231003 | 65 | 121 | 6.0 | 17.0 | 0.00 | 0.00 | 0.00 | 62 | 1003.4 |
| 20260902230503 | 66 | 155 | 10.0 | 19.0 | 0.00 | 0.00 | 0.00 | 61 | 1003.5 |
| 20260902225502 | 66 | 94 | 9.0 | 19.0 | 0.00 | 0.00 | 0.00 | 60 | 1003.5 |
| 20260902225004 | 66 | 122 | 7.0 | 17.0 | 0.00 | 0.00 | 0.00 | 61 | 1003.4 |
| 20260902224504 | 67 | 100 | 8.0 | 19.0 | 0.00 | 0.00 | 0.00 | 60 | 1003.4 |
| 20260902224003 | 67 | 122 | 6.0 | 19.0 | 0.00 | 0.00 | 0.00 | 59 | 1003.4 |
| 20260902223503 | 67 | 143 | 8.0 | 15.0 | 0.00 | 0.00 | 0.00 | 58 | 1003.1 |
| 20260902222504 | 67 | 142 | 8.0 | 17.0 | 0.00 | 0.00 | 0.00 | 57 | 1003.2 |
| 20260902222003 | 67 | 112 | 9.0 | 16.0 | 0.00 | 0.00 | 0.00 | 57 | 1003.2 |
| 20260902221003 | 67 | 172 | 6.0 | 15.0 | 0.00 | 0.00 | 0.00 | 57 | 1003.2 |
| 20260902220010 | 67 | 149 | 8.0 | 16.0 | 0.00 | 0.00 | 0.00 | 58 | 1003.3 |
| 20260902215005 | 66 | 142 | 6.0 | 14.0 | 0.00 | 0.00 | 0.00 | 60 | 1003.4 |
| 20260902214503 | 67 | 223 | 4.0 | 19.0 | 0.00 | 0.00 | 0.00 | 61 | 1003.4 |
| 20260902214003 | 68 | 144 | 6.0 | 19.0 | 0.00 | 0.00 | 0.00 | 57 | 1003.4 |
| 20260902213503 | 69 | 341 | 9.0 | 14.0 | 0.00 | 0.00 | 0.00 | 54 | 1003.4 |
| 20260902213003 | 70 | 319 | 3.0 | 10.0 | 0.00 | 0.00 | 0.00 | 52 | 1003.3 |
| 20260902212505 | 70 | 245 | 3.0 | 14.0 | 0.00 | 0.00 | 0.00 | 53 | 1003.0 |
| 20260902212003 | 70 | 108 | 6.0 | 14.0 | 0.00 | 0.00 | 0.00 | 52 | 1003.1 |
| 20260902210504 | 69 | 161 | 7.0 | 15.0 | 0.00 | 0.00 | 0.00 | 52 | 1003.3 |
| 20260902210007 | 69 | 135 | 7.0 | 15.0 | 0.00 | 0.00 | 0.00 | 52 | 1003.3 |
| 20260902205504 | 69 | 156 | 6.0 | 14.0 | 0.00 | 0.00 | 0.00 | 52 | 1003.4 |
| 20260902205003 | 69 | 108 | 6.0 | 15.0 | 0.00 | 0.00 | 0.00 | 52 | 1003.4 |
| 20260902204513 | 70 | 117 | 9.0 | 15.0 | 0.00 | 0.00 | 0.00 | 52 | 1003.5 |
| 20260902204004 | 70 | 176 | 7.0 | 14.0 | 0.00 | 0.00 | 0.00 | 53 | 1003.6 |
| 20260902203503 | 70 | 178 | 8.0 | 14.0 | 0.00 | 0.00 | 0.00 | 52 | 1003.6 |
| 20260902202502 | 70 | 136 | 7.0 | 12.0 | 0.00 | 0.00 | 0.00 | 53 | 1003.7 |
| 20260902202003 | 70 | 178 | 4.0 | 9.0 | 0.00 | 0.00 | 0.00 | 53 | 1003.8 |
| 20260902201504 | 70 | 136 | 4.0 | 12.0 | 0.00 | 0.00 | 0.00 | 54 | 1003.9 |
| 20260902201003 | 69 | 101 | 5.0 | 13.0 | 0.00 | 0.00 | 0.00 | 53 | 1004.0 |
| 20260902200503 | 70 | 186 | 8.0 | 16.0 | 0.00 | 0.00 | 0.00 | 53 | 1004.0 |
| 20260902200007 | 69 | 120 | 7.0 | 16.0 | 0.00 | 0.00 | 0.00 | 52 | 1004.1 |
| 20260902195502 | 69 | 163 | 7.0 | 14.0 | 0.00 | 0.00 | 0.00 | 53 | 1004.1 |
| 20260902195003 | 69 | 102 | 7.0 | 13.0 | 0.00 | 0.00 | 0.00 | 53 | 1004.2 |
| 20260902194503 | 70 | 105 | 9.0 | 14.0 | 0.00 | 0.00 | 0.00 | 52 | 1004.3 |
| 20260902194002 | 70 | 141 | 6.0 | 14.0 | 0.00 | 0.00 | 0.00 | 52 | 1004.3 |
| 20260902193504 | 70 | 140 | 5.0 | 12.0 | 0.00 | 0.00 | 0.00 | 52 | 1004.2 |
| 20260902193003 | 71 | 154 | 6.0 | 12.0 | 0.00 | 0.00 | 0.00 | 51 | 1004.4 |
| 20260902192502 | 71 | 165 | 7.0 | 11.0 | 0.00 | 0.00 | 0.00 | 51 | 1004.3 |
| 20260902192004 | 71 | 144 | 5.0 | 15.0 | 0.00 | 0.00 | 0.00 | 51 | 1004.3 |
| 20260902191504 | 71 | 147 | 5.0 | 15.0 | 0.00 | 0.00 | 0.00 | 51 | 1004.2 |
| 20260902191004 | 71 | 107 | 7.0 | 16.0 | 0.00 | 0.00 | 0.00 | 51 | 1004.2 |
| 20260902190503 | 71 | 144 | 10.0 | 16.0 | 0.00 | 0.00 | 0.00 | 51 | 1004.4 |
| 20260902190003 | 70 | 137 | 8.0 | 21.0 | 0.00 | 0.00 | 0.00 | 52 | 1004.5 |
| 20260902185503 | 70 | 164 | 10.0 | 21.0 | 0.00 | 0.00 | 0.00 | 52 | 1004.5 |
| 20260902185003 | 70 | 132 | 9.0 | 17.0 | 0.00 | 0.00 | 0.00 | 52 | 1004.6 |
| 20260902184503 | 70 | 102 | 9.0 | 17.0 | 0.00 | 0.00 | 0.00 | 52 | 1004.6 |
| 20260902184003 | 70 | 157 | 7.0 | 15.0 | 0.00 | 0.00 | 0.00 | 52 | 1004.7 |
| 20260902183003 | 70 | 119 | 8.0 | 14.0 | 0.00 | 0.00 | 0.00 | 52 | 1004.8 |
| 20260902182502 | 70 | 129 | 7.0 | 13.0 | 0.00 | 0.00 | 0.00 | 53 | 1004.7 |
| 20260902181503 | 70 | 163 | 6.0 | 14.0 | 0.00 | 0.00 | 0.00 | 53 | 1004.7 |
| 20260902181003 | 70 | 147 | 7.0 | 14.0 | 0.00 | 0.00 | 0.00 | 53 | 1004.7 |
| 20260902175503 | 69 | 137 | 6.0 | 17.0 | 0.00 | 0.00 | 0.00 | 55 | 1004.8 |
| 20260902175003 | 68 | 136 | 8.0 | 16.0 | 0.00 | 0.00 | 0.00 | 57 | 1004.6 |
| 20260902174503 | 68 | 94 | 8.0 | 20.0 | 0.00 | 0.00 | 0.00 | 57 | 1004.8 |
| 20260902174004 | 68 | 86 | 10.0 | 20.0 | 0.00 | 0.00 | 0.00 | 58 | 1004.8 |
| 20260902173004 | 67 | 101 | 6.0 | 13.0 | 0.00 | 0.00 | 0.00 | 59 | 1005.0 |
| 20260902172503 | 67 | 121 | 5.0 | 13.0 | 0.00 | 0.00 | 0.00 | 59 | 1005.2 |
| 20260902172004 | 67 | 141 | 7.0 | 16.0 | 0.00 | 0.00 | 0.00 | 58 | 1005.3 |
| 20260902171505 | 68 | 113 | 9.0 | 16.0 | 0.00 | 0.00 | 0.00 | 58 | 1005.5 |
| 20260902171004 | 68 | 152 | 7.0 | 14.0 | 0.00 | 0.00 | 0.00 | 59 | 1005.4 |
| 20260902170502 | 67 | 138 | 6.0 | 14.0 | 0.00 | 0.00 | 0.00 | 60 | 1005.5 |
| 20260902170005 | 67 | 127 | 6.0 | 16.0 | 0.00 | 0.00 | 0.00 | 62 | 1005.5 |
| 20260902165003 | 66 | 93 | 7.0 | 18.0 | 0.00 | 0.00 | 0.00 | 63 | 1005.6 |
| 20260902164002 | 66 | 154 | 9.0 | 16.0 | 0.00 | 0.00 | 0.00 | 64 | 1005.8 |
| 20260902163502 | 65 | 125 | 7.0 | 19.0 | 0.00 | 0.00 | 0.00 | 65 | 1005.8 |
| 20260902163003 | 65 | 138 | 11.0 | 18.0 | 0.00 | 0.00 | 0.00 | 66 | 1005.9 |
| 20260902162502 | 65 | 135 | 7.0 | 13.0 | 0.00 | 0.00 | 0.00 | 66 | 1005.9 |
| 20260902162003 | 65 | 149 | 5.0 | 12.0 | 0.00 | 0.00 | 0.00 | 66 | 1005.9 |
| 20260902161504 | 65 | 148 | 4.0 | 12.0 | 0.00 | 0.00 | 0.00 | 67 | 1005.9 |
| 20260902161003 | 64 | 107 | 4.0 | 15.0 | 0.00 | 0.00 | 0.00 | 67 | 1005.9 |
| 20260902160502 | 64 | 128 | 7.0 | 15.0 | 0.00 | 0.00 | 0.00 | 68 | 1005.9 |
| 20260902160009 | 63 | 112 | 6.0 | 17.0 | 0.00 | 0.00 | 0.00 | 69 | 1005.9 |
| 20260902155503 | 63 | 138 | 7.0 | 17.0 | 0.00 | 0.00 | 0.00 | 69 | 1005.9 |
| 20260902154503 | 63 | 102 | 5.0 | 18.0 | 0.00 | 0.00 | 0.00 | 69 | 1005.9 |
| 20260902154003 | 63 | 96 | 6.0 | 12.0 | 0.00 | 0.00 | 0.00 | 69 | 1005.8 |
| 20260902153503 | 63 | 136 | 4.0 | 11.0 | 0.00 | 0.00 | 0.00 | 70 | 1005.8 |
| 20260902152503 | 63 | 166 | 8.0 | 16.0 | 0.00 | 0.00 | 0.00 | 70 | 1005.8 |
| 20260902151503 | 63 | 130 | 7.0 | 15.0 | 0.00 | 0.00 | 0.00 | 69 | 1005.8 |
| 20260902151004 | 63 | 152 | 6.0 | 16.0 | 0.00 | 0.00 | 0.00 | 69 | 1005.8 |
| 20260902150502 | 64 | 133 | 7.0 | 16.0 | 0.00 | 0.00 | 0.00 | 69 | 1005.8 |
| 20260902150003 | 64 | 132 | 7.0 | 16.0 | 0.00 | 0.00 | 0.00 | 69 | 1005.9 |
| 20260902145502 | 64 | 117 | 5.0 | 14.0 | 0.00 | 0.00 | 0.00 | 69 | 1005.9 |
| 20260902145003 | 64 | 124 | 8.0 | 14.0 | 0.00 | 0.00 | 0.00 | 69 | 1005.9 |
| 20260902144502 | 63 | 178 | 5.0 | 16.0 | 0.00 | 0.00 | 0.00 | 69 | 1005.9 |
| 20260902144003 | 63 | 131 | 6.0 | 19.0 | 0.00 | 0.00 | 0.00 | 69 | 1006.0 |
| 20260902143502 | 63 | 156 | 7.0 | 19.0 | 0.00 | 0.00 | 0.00 | 70 | 1006.1 |
| 20260902143004 | 63 | 142 | 5.0 | 19.0 | 0.00 | 0.00 | 0.00 | 70 | 1006.0 |
| 20260902142504 | 63 | 147 | 8.0 | 19.0 | 0.00 | 0.00 | 0.00 | 70 | 1005.9 |
| 20260902141504 | 62 | 137 | 8.0 | 16.0 | 0.00 | 0.00 | 0.00 | 72 | 1006.1 |
| 20260902141003 | 62 | 115 | 5.0 | 14.0 | 0.00 | 0.00 | 0.00 | 72 | 1006.0 |
| 20260902140004 | 62 | 120 | 7.0 | 18.0 | 0.00 | 0.00 | 0.00 | 72 | 1006.3 |
| 20260902135502 | 62 | 86 | 8.0 | 18.0 | 0.00 | 0.00 | 0.00 | 72 | 1006.3 |
| 20260902135004 | 62 | 124 | 4.0 | 12.0 | 0.00 | 0.00 | 0.00 | 72 | 1006.4 |
| 20260902134502 | 62 | 108 | 5.0 | 15.0 | 0.00 | 0.00 | 0.00 | 72 | 1006.5 |
| 20260902134003 | 62 | 89 | 4.0 | 15.0 | 0.00 | 0.00 | 0.00 | 72 | 1006.6 |
| 20260902133503 | 62 | 191 | 4.0 | 13.0 | 0.00 | 0.00 | 0.00 | 72 | 1006.6 |
| 20260902132502 | 62 | 159 | 5.0 | 14.0 | 0.00 | 0.00 | 0.00 | 72 | 1006.4 |
| 20260902132002 | 63 | 178 | 4.0 | 16.0 | 0.00 | 0.00 | 0.00 | 72 | 1006.4 |
| 20260902131503 | 63 | 178 | 7.0 | 16.0 | 0.00 | 0.00 | 0.00 | 71 | 1006.4 |
| 20260902131002 | 63 | 220 | 5.0 | 15.0 | 0.00 | 0.00 | 0.00 | 72 | 1006.3 |
| 20260902130503 | 62 | 133 | 5.0 | 11.0 | 0.00 | 0.00 | 0.00 | 72 | 1006.4 |
| 20260902130003 | 63 | 126 | 4.0 | 10.0 | 0.00 | 0.00 | 0.00 | 72 | 1006.2 |
| 20260902125502 | 63 | 110 | 4.0 | 11.0 | 0.00 | 0.00 | 0.00 | 72 | 1006.2 |
| 20260902124504 | 63 | 103 | 7.0 | 12.0 | 0.00 | 0.00 | 0.00 | 71 | 1006.3 |
| 20260902123004 | 63 | 168 | 5.0 | 15.0 | 0.00 | 0.00 | 0.00 | 70 | 1006.3 |
| 20260902122503 | 63 | 167 | 7.0 | 15.0 | 0.00 | 0.00 | 0.00 | 70 | 1006.2 |
| 20260902122003 | 63 | 135 | 5.0 | 13.0 | 0.00 | 0.00 | 0.00 | 70 | 1006.3 |
| 20260902121503 | 63 | 133 | 5.0 | 13.0 | 0.00 | 0.00 | 0.00 | 70 | 1006.4 |
| 20260902121004 | 63 | 108 | 3.0 | 7.0 | 0.00 | 0.00 | 0.00 | 71 | 1006.4 |
| 20260902120503 | 63 | 58 | 1.0 | 5.0 | 0.00 | 0.00 | 0.00 | 71 | 1006.5 |
| 20260902115502 | 63 | 121 | 2.0 | 8.0 | 0.00 | 0.00 | 0.00 | 70 | 1006.6 |
| 20260902115003 | 63 | 137 | 4.0 | 7.0 | 0.00 | 0.00 | 0.00 | 70 | 1006.7 |
| 20260902114503 | 63 | 122 | 3.0 | 7.0 | 0.00 | 0.00 | 0.00 | 70 | 1006.8 |
| 20260902114004 | 63 | 110 | 2.0 | 7.0 | 0.00 | 0.00 | 0.00 | 70 | 1006.8 |
| 20260902113503 | 63 | 135 | 2.0 | 10.0 | 0.00 | 0.00 | 0.00 | 70 | 1006.9 |